Regional Weather Roundup
Issued by NWS

Home | Current Version | Previous Version | Text Only | Print | Product List | Glossary Off
Versions: 1 2 3 4 5 6 7 8 9 10 11 12 13 14 15 16 17 18 19 20 21 22 23 24 25 26 27 28 29 30 31 32 33 34 35 36 37 38 39 40 41 42 43 44 45 46 47 48 49 50

181
ASUS43 KIND 271609
RWRIN

WEATHER ROUNDUP FOR INDIANA
NATIONAL WEATHER SERVICE INDIANAPOLIS IN
1200 PM EDT TUE JUN 27 2017

NOTE: "FAIR" INDICATES FEW OR NO CLOUDS BELOW 12,000 FEET WITH NO
SIGNIFICANT WEATHER AND/OR OBSTRUCTIONS TO VISIBILITY.

* - STATION DOES NOT REPORT WEATHER SUCH AS PRECIPITATION OR FOG.

+ - STATION NOT QUALITY CONTROLLED BY THE NATIONAL WEATHER SERVICE.
    USE DATA WITH CAUTION...ESPECIALLY DEWPOINT AND RELATIVE
    HUMIDITY OBSERVATIONS.

INZ001>003-010>013-019-020-271700-
NORTHWEST INDIANA

CITY           SKY/WX    TMP DP  RH WIND       PRES   REMARKS
GARY /AIRPORT/ MOSUNNY   68  43  40 W12G23    30.15S
KNOX *+        SUNNY     68  37  32 W12       30.14F
LA PORTE +     MOSUNNY   68  46  45 W10       30.14F
MICHIGAN CITY+ SUNNY     68  46  45 W13       30.15S
MONTICELLO +   SUNNY     67  46  47 W6        30.16S
VALPARAISO     MOSUNNY   72  47  40 W9        30.15S

$$

LMZ046-743>745-271700-
SOUTHERN LAKE MICHIGAN

STATION/POSITION TIME  TEMP    WIND        PRES    WAVE
                       AIR SEA DIR/SP/G            HT
                 (UTC) (F)     (DEG/KT/KT) (MB)    (FT)
BURNS HARBOR     1540   65     290/  8/ 10 1021.0F
MICHIGAN CITY    1540   63     240/ 11/ 12   N/A
5NW MICH CITY    1600   63 65  270/ 10/ 12   N/A     2

$$

INZ004-005-014>016-021>024-271700-
NORTH CENTRAL INDIANA

CITY           SKY/WX    TMP DP  RH WIND       PRES   REMARKS
ELKHART        MOSUNNY   66  46  48 W9        30.13F
GOSHEN         MOSUNNY   67  46  47 W9        30.13F
LOGANSPORT +   SUNNY     64  46  52 CALM      30.17S
PERU/GRISSOM   SUNNY     66  49  55 W7        30.15F
ROCHESTER +    MOSUNNY   68  46  45 NW9       30.15F
SOUTH BEND     MOSUNNY   68  47  46 W14       30.13F
WARSAW +       MOSUNNY   66  46  48 NW7       30.14F

$$

INZ006>009-017-018-025>027-271700-
NORTHEAST INDIANA

CITY           SKY/WX    TMP DP  RH WIND       PRES   REMARKS
AUBURN +       MOSUNNY   68  43  40 NW10      30.15S
FORT WAYNE     MOSUNNY   67  48  50 W9        30.16S
HUNTINGTON +   SUNNY     65  46  51 N3        30.15S
KENDALLVILLE + MOSUNNY   67  46  46 N7        30.14S

$$

INZ028-029-035-036-043>045-051>053-271700-
WEST CENTRAL INDIANA

CITY           SKY/WX    TMP DP  RH WIND       PRES   REMARKS
CRAWFORDSVL +  SUNNY     65  49  56 W7        30.17F
GREENCASTLE +  MOSUNNY   68  45  42 CALM      30.18S
LAFAYETTE      SUNNY     68  48  48 NW7       30.16F
TERRE HAUTE    SUNNY     69  45  41 N8        30.18S

$$

INZ030>032-037>040-046>048-054>057-064-065-271700-
CENTRAL INDIANA

CITY           SKY/WX    TMP DP  RH WIND       PRES   REMARKS
COLUMBUS       MOSUNNY   66  45  45 CALM      30.17F
FISHERS *+     SUNNY     66  52  59 NW6       30.17
FRANKFORT +    SUNNY     69  49  48 N7        30.18F
GREENWOOD *+   SUNNY     67  47  48 N6        30.18R
INDIANAPOLIS   MOSUNNY   68  49  50 VRB6      30.17S
-EAGLE CREEK   SUNNY     68  47  46 NW6       30.17R
KOKOMO +       SUNNY     67  48  50 NW3       30.17S
MARION +       MOSUNNY   64  48  55 NW5       30.17S
MT COMFORT *+  SUNNY     66  48  52 N7        30.17S
SHELBYVILLE    SUNNY     68  45  43 N7        30.16F
ZIONSVILLE +   SUNNY     64  48  55 NW5       30.18S

$$

INZ033-034-041-042-049-050-058-059-271700-
EAST CENTRAL INDIANA

CITY           SKY/WX    TMP DP  RH WIND       PRES   REMARKS
MUNCIE         SUNNY     67  48  50 NW6       30.16S
RICHMOND +     MOSUNNY   63  48  59 N7        30.16F HAZE

$$

INZ060-061-067>069-081>083-085>088-271700-
SOUTHWEST INDIANA

CITY           SKY/WX    TMP DP  RH WIND       PRES   REMARKS
EVANSVILLE     SUNNY     74  52  46 N8        30.16F
HUNTINGBURG *+ SUNNY     71  54  54 N5        30.17S
WASHINGTON +   SUNNY     70  46  41 CALM      30.17S

$$

INZ062-063-066-070>080-084-089>092-271700-
SOUTH CENTRAL AND SOUTHEAST INDIANA

CITY           SKY/WX    TMP DP  RH WIND       PRES   REMARKS
BLOOMINGTON    MOSUNNY   69  46  43 NE3       30.17S
MADISON *+     SUNNY     70  43  37 N7        30.19S
NORTH VERNON + SUNNY     66  48  52 NW3       30.18S
SEYMOUR +      SUNNY     70  50  49 CALM      30.17S

$$





USA.gov is the U.S. government's official web portal to all federal, state and local government web resources and services.